Location: Namasale
(1.5000°N, 32.6167°E)
Time: 22:55:08
(UTC+00:00)

Vanguard 3 - Pass Details

Date: 10 December 2021
Orbit: 508 x 3260 km, 33.3° (Epoch: 27 January)

Event Time Altitude Azimuth Distance (km) Brightness Sun altitude
Rises 19:29:02 0° 227° (SW) 3,916 11.3 -51.1°
Reaches altitude 10° 19:31:16 10° 224° (SW) 3,218 10.6 -51.6°
Enters shadow 19:33:41 25° 220° (SW) 2,554 9.9 -52.1°
